Hourly Weather Kizielewszczyzna

Today, 27 July, Tuesday

Time Temperature Precipitation Wind Pressure Humidity
00:00 +19°C° 0.1 mm 3 mps 746 mmHg 93%
01:00 +19°C° 0.1 mm 3 mps 746 mmHg 94%
02:00 +19°C° 0.1 mm 3 mps 745 mmHg 96%
03:00 +18°C° 0 mm 3 mps 745 mmHg 97%
04:00 +18°C° 0 mm 3 mps 745 mmHg 97%
05:00 +18°C° 0 mm 3 mps 745 mmHg 98%
06:00 +20°C° 0 mm 3 mps 745 mmHg 93%
07:00 +21°C° 0 mm 3 mps 745 mmHg 87%
08:00 +22°C° 0 mm 3 mps 745 mmHg 82%
09:00 +25°C° 0 mm 3 mps 745 mmHg 75%
10:00 +27°C° 0 mm 3 mps 745 mmHg 67%
11:00 +28°C° 0 mm 3 mps 745 mmHg 60%
12:00 +27°C° 0.8 mm 3 mps 745 mmHg 65%
13:00 +27°C° 0.8 mm 3 mps 745 mmHg 70%
14:00 +26°C° 0.8 mm 4 mps 745 mmHg 75%
15:00 +25°C° 0.5 mm 3 mps 745 mmHg 77%
16:00 +24°C° 0.5 mm 2 mps 745 mmHg 78%
17:00 +24°C° 0.5 mm 2 mps 745 mmHg 80%
18:00 +23°C° 0.1 mm 2 mps 745 mmHg 81%
19:00 +23°C° 0.1 mm 1 mps 745 mmHg 82%
20:00 +23°C° 0.1 mm 1 mps 745 mmHg 84%
21:00 +22°C° 0.2 mm 1 mps 745 mmHg 86%
22:00 +20°C° 0.2 mm 2 mps 746 mmHg 88%
23:00 +19°C° 0.2 mm 2 mps 746 mmHg 90%

Tomorrow, 28 July, Wednesday

Time Temperature Precipitation Wind Pressure Humidity
00:00 +19°C° 0 mm 2 mps 746 mmHg 91%
01:00 +19°C° 0 mm 2 mps 746 mmHg 91%
02:00 +18°C° 0 mm 2 mps 745 mmHg 91%
03:00 +18°C° 0 mm 2 mps 745 mmHg 91%
04:00 +18°C° 0 mm 2 mps 745 mmHg 92%
05:00 +18°C° 0 mm 2 mps 745 mmHg 92%
06:00 +19°C° 0 mm 2 mps 745 mmHg 87%
07:00 +21°C° 0 mm 2 mps 746 mmHg 82%
08:00 +23°C° 0 mm 2 mps 746 mmHg 78%
09:00 +25°C° 0 mm 2 mps 746 mmHg 71%
10:00 +27°C° 0 mm 2 mps 746 mmHg 64%
11:00 +28°C° 0 mm 2 mps 746 mmHg 58%
12:00 +29°C° 0.1 mm 2 mps 746 mmHg 55%
13:00 +29°C° 0.1 mm 2 mps 745 mmHg 51%
14:00 +30°C° 0.1 mm 2 mps 745 mmHg 48%
15:00 +29°C° 0.6 mm 2 mps 745 mmHg 55%
16:00 +27°C° 0.6 mm 3 mps 744 mmHg 63%
17:00 +26°C° 0.6 mm 3 mps 744 mmHg 70%
18:00 +24°C° 1.8 mm 3 mps 744 mmHg 76%
19:00 +22°C° 1.8 mm 3 mps 744 mmHg 83%
20:00 +20°C° 1.8 mm 3 mps 744 mmHg 90%
21:00 +20°C° 0.5 mm 2 mps 744 mmHg 89%
22:00 +21°C° 0.5 mm 1 mps 744 mmHg 88%
23:00 +19°C° 0.5 mm 0 mps 744 mmHg 88%

Day after tomorrow, 29 July, Thursday

Time Temperature Precipitation Wind Pressure Humidity
00:00 +19°C° 0.5 mm 0 mps 744 mmHg 89%
01:00 +20°C° 0.5 mm 1 mps 744 mmHg 90%
02:00 +20°C° 0.5 mm 1 mps 744 mmHg 92%
03:00 +20°C° 0.3 mm 1 mps 744 mmHg 92%
04:00 +20°C° 0.3 mm 1 mps 744 mmHg 92%
05:00 +20°C° 0.3 mm 1 mps 744 mmHg 93%
06:00 +20°C° 0 mm 1 mps 744 mmHg 91%
07:00 +20°C° 0 mm 2 mps 744 mmHg 90%
08:00 +20°C° 0 mm 2 mps 744 mmHg 88%
09:00 +21°C° 0.1 mm 3 mps 744 mmHg 80%
10:00 +24°C° 0.1 mm 3 mps 744 mmHg 71%
11:00 +25°C° 0.1 mm 4 mps 744 mmHg 62%
12:00 +26°C° 0 mm 4 mps 744 mmHg 57%
13:00 +27°C° 0 mm 5 mps 744 mmHg 52%
14:00 +28°C° 0 mm 6 mps 744 mmHg 48%
15:00 +28°C° 0 mm 5 mps 744 mmHg 48%
16:00 +27°C° 0 mm 5 mps 744 mmHg 49%
17:00 +27°C° 0 mm 5 mps 743 mmHg 50%
18:00 +26°C° 0 mm 4 mps 743 mmHg 55%
19:00 +24°C° 0 mm 3 mps 743 mmHg 61%
20:00 +21°C° 0 mm 2 mps 743 mmHg 66%
21:00 +20°C° 0 mm 3 mps 743 mmHg 67%
22:00 +19°C° 0 mm 3 mps 743 mmHg 68%
23:00 +18°C° 0 mm 3 mps 743 mmHg 68%

30 July, Friday

Time Temperature Precipitation Wind Pressure Humidity
00:00 +18°C° 0 mm 3 mps 743 mmHg 69%
01:00 +17°C° 0 mm 3 mps 743 mmHg 70%
02:00 +17°C° 0 mm 3 mps 743 mmHg 71%
03:00 +17°C° 0 mm 3 mps 743 mmHg 68%
04:00 +18°C° 0 mm 2 mps 743 mmHg 66%
05:00 +18°C° 0 mm 2 mps 743 mmHg 64%
06:00 +19°C° 0 mm 2 mps 743 mmHg 64%
07:00 +20°C° 0 mm 3 mps 743 mmHg 65%
08:00 +20°C° 0 mm 3 mps 743 mmHg 66%
09:00 +22°C° 0 mm 3 mps 743 mmHg 60%
10:00 +23°C° 0 mm 4 mps 743 mmHg 55%
11:00 +26°C° 0 mm 4 mps 743 mmHg 49%
12:00 +26°C° 0 mm 4 mps 743 mmHg 49%
13:00 +26°C° 0 mm 4 mps 742 mmHg 49%
14:00 +27°C° 0 mm 4 mps 742 mmHg 48%
15:00 +27°C° 0 mm 4 mps 742 mmHg 49%
16:00 +27°C° 0 mm 4 mps 742 mmHg 50%
17:00 +27°C° 0 mm 4 mps 741 mmHg 51%
18:00 +25°C° 0 mm 3 mps 741 mmHg 56%
19:00 +22°C° 0 mm 3 mps 741 mmHg 61%
20:00 +21°C° 0 mm 2 mps 741 mmHg 66%
21:00 +20°C° 0 mm 2 mps 741 mmHg 67%
22:00 +19°C° 0 mm 2 mps 741 mmHg 69%
23:00 +19°C° 0 mm 1 mps 741 mmHg 70%

31 July, Saturday

Time Temperature Precipitation Wind Pressure Humidity
00:00 +17°C° 0 mm 2 mps 741 mmHg 71%
01:00 +17°C° 0 mm 2 mps 742 mmHg 73%
02:00 +16°C° 0 mm 2 mps 742 mmHg 74%
03:00 +16°C° 0 mm 2 mps 741 mmHg 75%
04:00 +16°C° 0 mm 2 mps 741 mmHg 76%
05:00 +15°C° 0 mm 1 mps 741 mmHg 78%
06:00 +17°C° 0 mm 2 mps 741 mmHg 73%
07:00 +18°C° 0 mm 2 mps 741 mmHg 68%
08:00 +20°C° 0 mm 2 mps 741 mmHg 63%
09:00 +23°C° 0 mm 2 mps 741 mmHg 58%
10:00 +24°C° 0 mm 2 mps 741 mmHg 53%
11:00 +26°C° 0 mm 3 mps 741 mmHg 48%
12:00 +26°C° 0 mm 3 mps 741 mmHg 47%
13:00 +27°C° 0 mm 3 mps 741 mmHg 46%
14:00 +28°C° 0 mm 3 mps 741 mmHg 45%
15:00 +27°C° 0 mm 3 mps 740 mmHg 48%
16:00 +27°C° 0 mm 2 mps 740 mmHg 51%
17:00 +27°C° 0 mm 2 mps 739 mmHg 55%
18:00 +24°C° 1.5 mm 2 mps 740 mmHg 67%
19:00 +21°C° 1.5 mm 2 mps 740 mmHg 80%
20:00 +19°C° 1.5 mm 2 mps 740 mmHg 93%
21:00 +18°C° 0 mm 2 mps 740 mmHg 93%
22:00 +17°C° 0 mm 2 mps 740 mmHg 93%
23:00 +17°C° 0 mm 3 mps 741 mmHg 93%

1 August, Sunday

Time Temperature Precipitation Wind Pressure Humidity
00:00 +16°C° 0 mm 3 mps 741 mmHg 93%
01:00 +14°C° 0 mm 3 mps 741 mmHg 92%
02:00 +13°C° 0 mm 3 mps 741 mmHg 91%
03:00 +13°C° 0 mm 3 mps 741 mmHg 91%
04:00 +13°C° 0 mm 3 mps 741 mmHg 91%
05:00 +12°C° 0 mm 3 mps 741 mmHg 91%
06:00 +14°C° 0 mm 3 mps 742 mmHg 86%
07:00 +15°C° 0 mm 4 mps 742 mmHg 81%
08:00 +17°C° 0 mm 5 mps 742 mmHg 77%
09:00 +19°C° 0 mm 5 mps 742 mmHg 69%
10:00 +20°C° 0 mm 6 mps 742 mmHg 61%
11:00 +22°C° 0 mm 6 mps 742 mmHg 54%
12:00 +23°C° 0 mm 6 mps 742 mmHg 51%
13:00 +23°C° 0 mm 6 mps 742 mmHg 47%
14:00 +24°C° 0 mm 6 mps 742 mmHg 44%
15:00 +23°C° 0 mm 5 mps 742 mmHg 47%
16:00 +23°C° 0 mm 5 mps 742 mmHg 50%
17:00 +22°C° 0 mm 4 mps 742 mmHg 53%
18:00 +21°C° 0 mm 4 mps 742 mmHg 57%
19:00 +20°C° 0 mm 3 mps 742 mmHg 60%
20:00 +20°C° 0 mm 3 mps 742 mmHg 63%
21:00 +19°C° 0 mm 3 mps 742 mmHg 63%
22:00 +19°C° 0 mm 2 mps 741 mmHg 64%
23:00 +19°C° 0 mm 2 mps 741 mmHg 64%
Show more